Year,Month,Day,Hour,Minute,Value (Times are PST for temperature in C)
2010,07,14,00,00,12.70
2010,07,14,00,01,12.70
2010,07,14,00,02,12.70
2010,07,14,00,03,12.70
2010,07,14,00,04,12.70
2010,07,14,00,05,12.70
2010,07,14,00,06,12.70
2010,07,14,00,07,12.60
2010,07,14,00,08,12.60
2010,07,14,00,09,12.60
2010,07,14,00,10,12.60
2010,07,14,00,11,12.60
2010,07,14,00,12,12.50
2010,07,14,00,13,12.50
2010,07,14,00,14,12.50
2010,07,14,00,15,12.50
2010,07,14,00,16,12.50
2010,07,14,00,17,12.40
2010,07,14,00,18,12.40
2010,07,14,00,19,12.40
2010,07,14,00,20,12.40
2010,07,14,00,21,12.40
2010,07,14,00,22,12.40
2010,07,14,00,23,12.30
2010,07,14,00,24,12.30
2010,07,14,00,25,12.30
2010,07,14,00,26,12.30
2010,07,14,00,27,12.30
2010,07,14,00,28,12.30
2010,07,14,00,29,12.20
2010,07,14,00,30,12.20
2010,07,14,00,31,12.20
2010,07,14,00,32,12.20
2010,07,14,00,33,12.20
2010,07,14,00,34,12.10
2010,07,14,00,35,12.10
2010,07,14,00,36,12.10
2010,07,14,00,37,12.10
2010,07,14,00,38,12.10
2010,07,14,00,39,12.00
2010,07,14,00,40,12.00
2010,07,14,00,41,12.00
2010,07,14,00,42,11.90
2010,07,14,00,43,11.90
2010,07,14,00,44,11.90
2010,07,14,00,45,11.90
2010,07,14,00,46,11.90
2010,07,14,00,47,11.90
2010,07,14,00,48,11.80
2010,07,14,00,49,11.80
2010,07,14,00,50,11.80
2010,07,14,00,51,11.80
2010,07,14,00,52,11.70
2010,07,14,00,53,11.70
2010,07,14,00,54,11.60
2010,07,14,00,55,11.60
2010,07,14,00,56,11.60
2010,07,14,00,57,11.60
2010,07,14,00,58,11.50
2010,07,14,00,59,11.50
2010,07,14,01,00,11.50
2010,07,14,01,01,11.50
2010,07,14,01,02,11.40
2010,07,14,01,03,11.40
2010,07,14,01,04,11.40
2010,07,14,01,05,11.40
2010,07,14,01,06,11.40
2010,07,14,01,07,11.40
2010,07,14,01,08,11.30
2010,07,14,01,09,11.30
2010,07,14,01,10,11.30
2010,07,14,01,11,11.30
2010,07,14,01,12,11.30
2010,07,14,01,13,11.30
2010,07,14,01,14,11.30
2010,07,14,01,15,11.40
2010,07,14,01,16,11.40
2010,07,14,01,17,11.40
2010,07,14,01,18,11.40
2010,07,14,01,19,11.40
2010,07,14,01,20,11.30
2010,07,14,01,21,11.30
2010,07,14,01,22,11.30
2010,07,14,01,23,11.30
2010,07,14,01,24,11.30
2010,07,14,01,25,11.30
2010,07,14,01,26,11.30
2010,07,14,01,27,11.30
2010,07,14,01,28,11.30
2010,07,14,01,29,11.30
2010,07,14,01,30,11.30
2010,07,14,01,31,11.30
2010,07,14,01,32,11.30
2010,07,14,01,33,11.30
2010,07,14,01,34,11.30
2010,07,14,01,35,11.30
2010,07,14,01,36,11.30
2010,07,14,01,37,11.30
2010,07,14,01,38,11.20
2010,07,14,01,39,11.20
2010,07,14,01,40,11.20
2010,07,14,01,41,11.20
2010,07,14,01,42,11.20
2010,07,14,01,43,11.20
2010,07,14,01,44,11.20
2010,07,14,01,45,11.20
2010,07,14,01,46,11.10
2010,07,14,01,47,11.10
2010,07,14,01,48,11.10
2010,07,14,01,49,11.10
2010,07,14,01,50,11.00
2010,07,14,01,51,11.00
2010,07,14,01,52,10.90
2010,07,14,01,53,10.90
2010,07,14,01,54,10.90
2010,07,14,01,55,10.90
2010,07,14,01,56,10.80
2010,07,14,01,57,10.80
2010,07,14,01,58,10.80
2010,07,14,01,59,10.80
2010,07,14,02,00,10.80
2010,07,14,02,01,10.80
2010,07,14,02,02,10.80
2010,07,14,02,03,10.80
2010,07,14,02,04,10.80
2010,07,14,02,05,10.80
2010,07,14,02,06,10.80
2010,07,14,02,07,10.80
2010,07,14,02,08,10.80
2010,07,14,02,09,10.80
2010,07,14,02,10,10.80
2010,07,14,02,11,10.80
2010,07,14,02,12,10.80
2010,07,14,02,13,10.70
2010,07,14,02,14,10.70
2010,07,14,02,15,10.70
2010,07,14,02,16,10.70
2010,07,14,02,17,10.70
2010,07,14,02,18,10.70
2010,07,14,02,19,10.70
2010,07,14,02,20,10.60
2010,07,14,02,21,10.60
2010,07,14,02,22,10.60
2010,07,14,02,23,10.60
2010,07,14,02,24,10.60
2010,07,14,02,25,10.50
2010,07,14,02,26,10.50
2010,07,14,02,27,10.50
2010,07,14,02,28,10.50
2010,07,14,02,29,10.50
2010,07,14,02,30,10.50
2010,07,14,02,31,10.40
2010,07,14,02,32,10.40
2010,07,14,02,33,10.40
2010,07,14,02,34,10.40
2010,07,14,02,35,10.40
2010,07,14,02,36,10.40
2010,07,14,02,37,10.40
2010,07,14,02,38,10.40
2010,07,14,02,39,10.40
2010,07,14,02,40,10.30
2010,07,14,02,41,10.30
2010,07,14,02,42,10.30
2010,07,14,02,43,10.30
2010,07,14,02,44,10.30
2010,07,14,02,45,10.30
2010,07,14,02,46,10.30
2010,07,14,02,47,10.30
2010,07,14,02,48,10.30
2010,07,14,02,49,10.30
2010,07,14,02,50,10.30
2010,07,14,02,51,10.30
2010,07,14,02,52,10.40
2010,07,14,02,53,10.30
2010,07,14,02,54,10.40
2010,07,14,02,55,10.30
2010,07,14,02,56,10.30
2010,07,14,02,57,10.30
2010,07,14,02,58,10.30
2010,07,14,02,59,10.30
2010,07,14,03,00,10.30
2010,07,14,03,01,10.30
2010,07,14,03,02,10.30
2010,07,14,03,03,10.30
2010,07,14,03,04,10.30
2010,07,14,03,05,10.30
2010,07,14,03,06,10.30
2010,07,14,03,07,10.30
2010,07,14,03,08,10.30
2010,07,14,03,09,10.30
2010,07,14,03,10,10.30
2010,07,14,03,11,10.30
2010,07,14,03,12,10.30
2010,07,14,03,13,10.30
2010,07,14,03,14,10.30
2010,07,14,03,15,10.40
2010,07,14,03,16,10.40
2010,07,14,03,17,10.50
2010,07,14,03,18,10.60
2010,07,14,03,19,10.70
2010,07,14,03,20,10.70
2010,07,14,03,21,10.70
2010,07,14,03,22,10.60
2010,07,14,03,23,10.60
2010,07,14,03,24,10.70
2010,07,14,03,25,10.60
2010,07,14,03,26,10.70
2010,07,14,03,27,10.70
2010,07,14,03,28,10.70
2010,07,14,03,29,10.60
2010,07,14,03,30,10.70
2010,07,14,03,31,10.70
2010,07,14,03,32,10.80
2010,07,14,03,33,10.80
2010,07,14,03,34,10.90
2010,07,14,03,35,10.90
2010,07,14,03,36,10.90
2010,07,14,03,37,10.90
2010,07,14,03,38,10.90
2010,07,14,03,39,10.90
2010,07,14,03,40,10.90
2010,07,14,03,41,10.90
2010,07,14,03,42,10.90
2010,07,14,03,43,10.90
2010,07,14,03,44,10.90
2010,07,14,03,45,11.00
2010,07,14,03,46,11.00
2010,07,14,03,47,11.00
2010,07,14,03,48,11.00
2010,07,14,03,49,11.00
2010,07,14,03,50,11.00
2010,07,14,03,51,11.00
2010,07,14,03,52,11.00
2010,07,14,03,53,11.00
2010,07,14,03,54,11.00
2010,07,14,03,55,10.90
2010,07,14,03,56,10.90
2010,07,14,03,57,10.90
2010,07,14,03,58,11.00
2010,07,14,03,59,11.00
2010,07,14,04,00,11.00
2010,07,14,04,01,11.00
2010,07,14,04,02,11.00
2010,07,14,04,03,11.00
2010,07,14,04,04,10.90
2010,07,14,04,05,10.90
2010,07,14,04,06,11.00
2010,07,14,04,07,11.00
2010,07,14,04,08,11.00
2010,07,14,04,09,11.00
2010,07,14,04,10,11.00
2010,07,14,04,11,11.00
2010,07,14,04,12,11.00
2010,07,14,04,13,11.00
2010,07,14,04,14,11.00
2010,07,14,04,15,11.00
2010,07,14,04,16,11.00
2010,07,14,04,17,11.00
2010,07,14,04,18,11.00
2010,07,14,04,19,11.00
2010,07,14,04,20,11.00
2010,07,14,04,21,11.00
2010,07,14,04,22,11.00
2010,07,14,04,23,11.00
2010,07,14,04,24,11.00
2010,07,14,04,25,11.00
2010,07,14,04,26,11.00
2010,07,14,04,27,11.00
2010,07,14,04,28,11.00
2010,07,14,04,29,11.00
2010,07,14,04,30,11.00
2010,07,14,04,31,11.00
2010,07,14,04,32,11.00
2010,07,14,04,33,11.10
2010,07,14,04,34,11.10
2010,07,14,04,35,11.10
2010,07,14,04,36,11.10
2010,07,14,04,37,11.10
2010,07,14,04,38,11.10
2010,07,14,04,39,11.10
2010,07,14,04,40,11.10
2010,07,14,04,41,11.10
2010,07,14,04,42,11.00
2010,07,14,04,43,11.00
2010,07,14,04,44,11.00
2010,07,14,04,45,10.90
2010,07,14,04,46,10.90
2010,07,14,04,47,10.80
2010,07,14,04,48,10.80
2010,07,14,04,49,10.80
2010,07,14,04,50,10.80
2010,07,14,04,51,10.80
2010,07,14,04,52,10.80
2010,07,14,04,53,10.80
2010,07,14,04,54,10.70
2010,07,14,04,55,10.70
2010,07,14,04,56,10.70
2010,07,14,04,57,10.80
2010,07,14,04,58,10.80
2010,07,14,04,59,10.80
2010,07,14,05,00,10.90
2010,07,14,05,01,10.90
2010,07,14,05,02,11.00
2010,07,14,05,03,11.10
2010,07,14,05,04,11.10
2010,07,14,05,05,11.10
2010,07,14,05,06,11.10
2010,07,14,05,07,11.00
2010,07,14,05,08,11.00
2010,07,14,05,09,10.90
2010,07,14,05,10,10.90
2010,07,14,05,11,10.80
2010,07,14,05,12,10.80
2010,07,14,05,13,10.80
2010,07,14,05,14,10.80
2010,07,14,05,15,10.80
2010,07,14,05,16,10.80
2010,07,14,05,17,10.70
2010,07,14,05,18,10.70
2010,07,14,05,19,10.60
2010,07,14,05,20,10.60
2010,07,14,05,21,10.60
2010,07,14,05,22,10.60
2010,07,14,05,23,10.50
2010,07,14,05,24,10.50
2010,07,14,05,25,10.40
2010,07,14,05,26,10.40
2010,07,14,05,27,10.40
2010,07,14,05,28,10.40
2010,07,14,05,29,10.50
2010,07,14,05,30,10.60
2010,07,14,05,31,10.60
2010,07,14,05,32,10.70
2010,07,14,05,33,10.70
2010,07,14,05,34,10.70
2010,07,14,05,35,10.80
2010,07,14,05,36,10.80
2010,07,14,05,37,10.80
2010,07,14,05,38,10.90
2010,07,14,05,39,11.00
2010,07,14,05,40,11.00
2010,07,14,05,41,11.10
2010,07,14,05,42,11.10
2010,07,14,05,43,11.10
2010,07,14,05,44,11.10
2010,07,14,05,45,11.10
2010,07,14,05,46,11.10
2010,07,14,05,47,11.10
2010,07,14,05,48,11.10
2010,07,14,05,49,11.10
2010,07,14,05,50,11.10
2010,07,14,05,51,11.10
2010,07,14,05,52,11.10
2010,07,14,05,53,11.10
2010,07,14,05,54,11.10
2010,07,14,05,55,11.00
2010,07,14,05,56,11.00
2010,07,14,05,57,11.00
2010,07,14,05,58,10.90
2010,07,14,05,59,10.90
2010,07,14,06,00,10.80
2010,07,14,06,01,10.80
2010,07,14,06,02,10.70
2010,07,14,06,03,10.70
2010,07,14,06,04,10.70
2010,07,14,06,05,10.70
2010,07,14,06,06,10.60
2010,07,14,06,07,10.60
2010,07,14,06,08,10.60
2010,07,14,06,09,10.60
2010,07,14,06,10,10.60
2010,07,14,06,11,10.60
2010,07,14,06,12,10.70
2010,07,14,06,13,10.70
2010,07,14,06,14,10.70
2010,07,14,06,15,10.70
2010,07,14,06,16,10.70
2010,07,14,06,17,10.70
2010,07,14,06,18,10.70
2010,07,14,06,19,10.80
2010,07,14,06,20,10.80
2010,07,14,06,21,10.80
2010,07,14,06,22,10.80
2010,07,14,06,23,10.80
2010,07,14,06,24,10.80
2010,07,14,06,25,10.90
2010,07,14,06,26,10.90
2010,07,14,06,27,10.90
2010,07,14,06,28,10.90
2010,07,14,06,29,11.00
2010,07,14,06,30,11.00
2010,07,14,06,31,11.10
2010,07,14,06,32,11.10
2010,07,14,06,33,11.10
2010,07,14,06,34,11.20
2010,07,14,06,35,11.20
2010,07,14,06,36,11.30
2010,07,14,06,37,11.40
2010,07,14,06,38,11.40
2010,07,14,06,39,11.50
2010,07,14,06,40,11.60
2010,07,14,06,41,11.70
2010,07,14,06,42,11.80
2010,07,14,06,43,11.90
2010,07,14,06,44,12.00
2010,07,14,06,45,12.10
2010,07,14,06,46,12.10
2010,07,14,06,47,12.20
2010,07,14,06,48,12.30
2010,07,14,06,49,12.40
2010,07,14,06,50,12.50
2010,07,14,06,51,12.60
2010,07,14,06,52,12.70
2010,07,14,06,53,12.80
2010,07,14,06,54,12.90
2010,07,14,06,55,13.00
2010,07,14,06,56,13.00
2010,07,14,06,57,13.10
2010,07,14,06,58,13.10
2010,07,14,06,59,13.10
2010,07,14,07,00,13.10
2010,07,14,07,01,13.10
2010,07,14,07,02,13.10
2010,07,14,07,03,13.10
2010,07,14,07,04,13.20
2010,07,14,07,05,13.20
2010,07,14,07,06,13.20
2010,07,14,07,07,13.30
2010,07,14,07,08,13.30
2010,07,14,07,09,13.30
2010,07,14,07,10,13.30
2010,07,14,07,11,13.40
2010,07,14,07,12,13.40
2010,07,14,07,13,13.40
2010,07,14,07,14,13.40
2010,07,14,07,15,13.50
2010,07,14,07,16,13.60
2010,07,14,07,17,13.70
2010,07,14,07,18,13.70
2010,07,14,07,19,13.80
2010,07,14,07,20,13.90
2010,07,14,07,21,14.00
2010,07,14,07,22,14.10
2010,07,14,07,23,14.20
2010,07,14,07,24,14.20
2010,07,14,07,25,14.20
2010,07,14,07,26,14.30
2010,07,14,07,27,14.30
2010,07,14,07,28,14.30
2010,07,14,07,29,14.30
2010,07,14,07,30,14.30
2010,07,14,07,31,14.30
2010,07,14,07,32,14.20
2010,07,14,07,33,14.20
2010,07,14,07,34,14.20
2010,07,14,07,35,14.20
2010,07,14,07,36,14.20
2010,07,14,07,37,14.20
2010,07,14,07,38,14.30
2010,07,14,07,39,14.30
2010,07,14,07,40,14.30
2010,07,14,07,41,14.30
2010,07,14,07,42,14.30
2010,07,14,07,43,14.30
2010,07,14,07,44,14.40
2010,07,14,07,45,14.40
2010,07,14,07,46,14.40
2010,07,14,07,47,14.40
2010,07,14,07,48,14.40
2010,07,14,07,49,14.40
2010,07,14,07,50,14.40
2010,07,14,07,51,14.40
2010,07,14,07,52,14.40
2010,07,14,07,53,14.40
2010,07,14,07,54,14.50
2010,07,14,07,55,14.50
2010,07,14,07,56,14.60
2010,07,14,07,57,14.60
2010,07,14,07,58,14.60
2010,07,14,07,59,14.70
2010,07,14,08,00,14.80
2010,07,14,08,01,14.80
2010,07,14,08,02,14.80
2010,07,14,08,03,14.90
2010,07,14,08,04,15.00
2010,07,14,08,05,15.00
2010,07,14,08,06,15.00
2010,07,14,08,07,15.00
2010,07,14,08,08,15.00
2010,07,14,08,09,15.00
2010,07,14,08,10,15.10
2010,07,14,08,11,15.10
2010,07,14,08,12,15.20
2010,07,14,08,13,15.30
2010,07,14,08,14,15.40
2010,07,14,08,15,15.40
2010,07,14,08,16,15.50
2010,07,14,08,17,15.50
2010,07,14,08,18,15.60
2010,07,14,08,19,15.60
2010,07,14,08,20,15.70
2010,07,14,08,21,15.70
2010,07,14,08,22,15.70
2010,07,14,08,23,15.70
2010,07,14,08,24,15.70
2010,07,14,08,25,15.70
2010,07,14,08,26,15.70
2010,07,14,08,27,15.70
2010,07,14,08,28,15.80
2010,07,14,08,29,15.80
2010,07,14,08,30,15.80
2010,07,14,08,31,15.80
2010,07,14,08,32,15.80
2010,07,14,08,33,15.80
2010,07,14,08,34,15.80
2010,07,14,08,35,15.70
2010,07,14,08,36,15.80
2010,07,14,08,37,15.80
2010,07,14,08,38,15.80
2010,07,14,08,39,15.90
2010,07,14,08,40,15.90
2010,07,14,08,41,15.90
2010,07,14,08,42,16.00
2010,07,14,08,43,16.00
2010,07,14,08,44,16.00
2010,07,14,08,45,16.00
2010,07,14,08,46,16.10
2010,07,14,08,47,16.10
2010,07,14,08,48,16.10
2010,07,14,08,49,16.10
2010,07,14,08,50,16.10
2010,07,14,08,51,16.20
2010,07,14,08,52,16.20
2010,07,14,08,53,16.30
2010,07,14,08,54,16.30
2010,07,14,08,55,16.20
2010,07,14,08,56,16.20
2010,07,14,08,57,16.20
2010,07,14,08,58,16.20
2010,07,14,08,59,16.20
2010,07,14,09,00,16.20
2010,07,14,09,01,16.20
2010,07,14,09,02,16.30
2010,07,14,09,03,16.30
2010,07,14,09,04,16.30
2010,07,14,09,05,16.40
2010,07,14,09,06,16.50
2010,07,14,09,07,16.50
2010,07,14,09,08,16.40
2010,07,14,09,09,16.50
2010,07,14,09,10,16.50
2010,07,14,09,11,16.60
2010,07,14,09,12,16.60
2010,07,14,09,13,16.70
2010,07,14,09,14,16.70
2010,07,14,09,15,16.70
2010,07,14,09,16,16.80
2010,07,14,09,17,16.90
2010,07,14,09,18,16.90
2010,07,14,09,19,17.00
2010,07,14,09,20,17.10
2010,07,14,09,21,17.20
2010,07,14,09,22,17.20
2010,07,14,09,23,17.20
2010,07,14,09,24,17.10
2010,07,14,09,25,17.10
2010,07,14,09,26,17.10
2010,07,14,09,27,17.00
2010,07,14,09,28,17.00
2010,07,14,09,29,17.00
2010,07,14,09,30,17.00
2010,07,14,09,31,17.10
2010,07,14,09,32,17.10
2010,07,14,09,33,17.10
2010,07,14,09,34,17.20
2010,07,14,09,35,17.30
2010,07,14,09,36,17.40
2010,07,14,09,37,17.40
2010,07,14,09,38,17.40
2010,07,14,09,39,17.30
2010,07,14,09,40,17.30
2010,07,14,09,41,17.30
2010,07,14,09,42,17.40
2010,07,14,09,43,17.40
2010,07,14,09,44,17.40
2010,07,14,09,45,17.40
2010,07,14,09,46,17.50
2010,07,14,09,47,17.60
2010,07,14,09,48,17.60
2010,07,14,09,49,17.60
2010,07,14,09,50,17.70
2010,07,14,09,51,17.80
2010,07,14,09,52,17.80
2010,07,14,09,53,17.90
2010,07,14,09,54,17.90
2010,07,14,09,55,18.00
2010,07,14,09,56,18.00
2010,07,14,09,57,18.10
2010,07,14,09,58,18.20
2010,07,14,09,59,18.20
2010,07,14,10,00,18.30
2010,07,14,10,01,18.40
2010,07,14,10,02,18.40
2010,07,14,10,03,18.50
2010,07,14,10,04,18.50
2010,07,14,10,05,18.60
2010,07,14,10,06,18.70
2010,07,14,10,07,18.80
2010,07,14,10,08,18.90
2010,07,14,10,09,18.80
2010,07,14,10,10,18.80
2010,07,14,10,11,18.70
2010,07,14,10,12,18.50
2010,07,14,10,13,18.40
2010,07,14,10,14,18.40
2010,07,14,10,15,18.40
2010,07,14,10,16,18.30
2010,07,14,10,17,18.20
2010,07,14,10,18,18.20
2010,07,14,10,19,18.20
2010,07,14,10,20,18.20
2010,07,14,10,21,18.30
2010,07,14,10,22,18.50
2010,07,14,10,23,18.60
2010,07,14,10,24,18.70
2010,07,14,10,25,18.70
2010,07,14,10,26,18.80
2010,07,14,10,27,18.80
2010,07,14,10,28,18.80
2010,07,14,10,29,18.90
2010,07,14,10,30,18.90
2010,07,14,10,31,19.10
2010,07,14,10,32,19.20
2010,07,14,10,33,19.20
2010,07,14,10,34,19.30
2010,07,14,10,35,19.30
2010,07,14,10,36,19.30
2010,07,14,10,37,19.30
2010,07,14,10,38,19.20
2010,07,14,10,39,19.30
2010,07,14,10,40,19.30
2010,07,14,10,41,19.30
2010,07,14,10,42,19.40
2010,07,14,10,43,19.20
2010,07,14,10,44,19.00
2010,07,14,10,45,18.90
2010,07,14,10,46,18.80
2010,07,14,10,47,18.60
2010,07,14,10,48,18.50
2010,07,14,10,49,18.40
2010,07,14,10,50,18.30
2010,07,14,10,51,18.30
2010,07,14,10,52,18.30
2010,07,14,10,53,18.30
2010,07,14,10,54,18.30
2010,07,14,10,55,18.40
2010,07,14,10,56,18.50
2010,07,14,10,57,18.60
2010,07,14,10,58,18.70
2010,07,14,10,59,18.80
2010,07,14,11,00,18.90
2010,07,14,11,01,19.00
2010,07,14,11,02,19.10
2010,07,14,11,03,19.00
2010,07,14,11,04,18.90
2010,07,14,11,05,18.80
2010,07,14,11,06,18.90
2010,07,14,11,07,18.80
2010,07,14,11,08,18.70
2010,07,14,11,09,18.60
2010,07,14,11,10,18.60
2010,07,14,11,11,18.60
2010,07,14,11,12,18.60
2010,07,14,11,13,18.60
2010,07,14,11,14,18.60
2010,07,14,11,15,18.60
2010,07,14,11,16,18.60
2010,07,14,11,17,18.50
2010,07,14,11,18,18.40
2010,07,14,11,19,18.30
2010,07,14,11,20,18.20
2010,07,14,11,21,18.20
2010,07,14,11,22,18.20
2010,07,14,11,23,18.20
2010,07,14,11,24,18.10
2010,07,14,11,25,18.20
2010,07,14,11,26,18.10
2010,07,14,11,27,18.10
2010,07,14,11,28,18.10
2010,07,14,11,29,18.20
2010,07,14,11,30,18.40
2010,07,14,11,31,18.50
2010,07,14,11,32,18.70
2010,07,14,11,33,19.00
2010,07,14,11,34,19.20
2010,07,14,11,35,19.40
2010,07,14,11,36,19.60
2010,07,14,11,37,19.80
2010,07,14,11,38,20.00
2010,07,14,11,39,20.00
2010,07,14,11,40,19.90
2010,07,14,11,41,19.90
2010,07,14,11,42,19.80
2010,07,14,11,43,19.80
2010,07,14,11,44,19.80
2010,07,14,11,45,19.80
2010,07,14,11,46,19.80
2010,07,14,11,47,19.80
2010,07,14,11,48,19.80
2010,07,14,11,49,19.80
2010,07,14,11,50,19.80
2010,07,14,11,51,20.00
2010,07,14,11,52,20.00
2010,07,14,11,53,20.00
2010,07,14,11,54,19.90
2010,07,14,11,55,19.70
2010,07,14,11,56,19.40
2010,07,14,11,57,19.20
2010,07,14,11,58,19.00
2010,07,14,11,59,18.90
2010,07,14,12,00,19.00
2010,07,14,12,01,19.00
2010,07,14,12,02,18.90
2010,07,14,12,03,18.80
2010,07,14,12,04,18.80
2010,07,14,12,05,18.80
2010,07,14,12,13,19.30
2010,07,14,12,14,19.50
2010,07,14,12,15,19.60
2010,07,14,12,16,19.70
2010,07,14,12,17,19.80
2010,07,14,12,18,19.80
2010,07,14,12,19,19.90
2010,07,14,12,20,20.00
2010,07,14,12,21,20.10
2010,07,14,12,22,20.10
2010,07,14,12,23,20.00
2010,07,14,12,24,20.00
2010,07,14,12,25,20.10
2010,07,14,12,26,20.10
2010,07,14,12,27,20.10
2010,07,14,12,28,20.20
2010,07,14,12,29,20.20
2010,07,14,12,30,20.20
2010,07,14,12,31,20.30
2010,07,14,12,32,20.20
2010,07,14,12,33,20.30
2010,07,14,12,34,20.30
2010,07,14,12,35,20.20
2010,07,14,12,36,20.10
2010,07,14,12,37,20.20
2010,07,14,12,38,20.20
2010,07,14,12,39,20.40
2010,07,14,12,40,20.50
2010,07,14,12,41,20.40
2010,07,14,12,42,20.40
2010,07,14,12,43,20.30
2010,07,14,12,44,20.20
2010,07,14,12,45,20.20
2010,07,14,12,46,20.20
2010,07,14,12,47,20.20
2010,07,14,12,48,20.20
2010,07,14,12,49,20.30
2010,07,14,12,50,20.40
2010,07,14,12,51,20.50
2010,07,14,12,52,20.60
2010,07,14,12,53,20.60
2010,07,14,12,54,20.70
2010,07,14,12,55,20.80
2010,07,14,12,56,20.90
2010,07,14,12,57,20.90
2010,07,14,12,58,20.90
2010,07,14,12,59,20.80
2010,07,14,13,00,20.70
2010,07,14,13,01,20.60
2010,07,14,13,02,20.60
2010,07,14,13,03,20.60
2010,07,14,13,04,20.60
2010,07,14,13,05,20.70
2010,07,14,13,06,20.70
2010,07,14,13,07,20.70
2010,07,14,13,08,20.70
2010,07,14,13,09,20.60
2010,07,14,13,10,20.50
2010,07,14,13,11,20.40
2010,07,14,13,12,20.30
2010,07,14,13,13,20.30
2010,07,14,13,14,20.50
2010,07,14,13,15,20.50
2010,07,14,13,16,20.50
2010,07,14,13,17,20.50
2010,07,14,13,18,20.50
2010,07,14,13,19,20.50
2010,07,14,13,20,20.50
2010,07,14,13,21,20.60
2010,07,14,13,22,20.70
2010,07,14,13,23,20.70
2010,07,14,13,24,20.60
2010,07,14,13,25,20.70
2010,07,14,13,26,20.70
2010,07,14,13,27,20.80
2010,07,14,13,28,20.90
2010,07,14,13,29,20.80
2010,07,14,13,30,20.70
2010,07,14,13,31,20.70
2010,07,14,13,32,20.70
2010,07,14,13,33,20.60
2010,07,14,13,34,20.50
2010,07,14,13,35,20.40
2010,07,14,13,36,20.40
2010,07,14,13,37,20.40
2010,07,14,13,38,20.50
2010,07,14,13,39,20.50
2010,07,14,13,40,20.40
2010,07,14,13,41,20.50
2010,07,14,13,42,20.60
2010,07,14,13,43,20.70
2010,07,14,13,44,20.70
2010,07,14,13,45,20.70
2010,07,14,13,46,20.70
2010,07,14,13,47,20.80
2010,07,14,13,48,20.80
2010,07,14,13,49,20.80
2010,07,14,13,50,20.80
2010,07,14,13,51,20.70
2010,07,14,13,52,20.70
2010,07,14,13,53,20.60
2010,07,14,13,54,20.50
2010,07,14,13,55,20.40
2010,07,14,13,56,20.30
2010,07,14,13,57,20.30
2010,07,14,13,58,20.40
2010,07,14,13,59,20.50
2010,07,14,14,00,20.70
2010,07,14,14,01,20.90
2010,07,14,14,02,21.20
2010,07,14,14,03,21.30
2010,07,14,14,04,21.40
2010,07,14,14,05,21.40
2010,07,14,14,06,21.50
2010,07,14,14,07,21.60
2010,07,14,14,08,21.60
2010,07,14,14,09,21.70
2010,07,14,14,10,21.70
2010,07,14,14,11,21.80
2010,07,14,14,12,21.80
2010,07,14,14,13,21.80
2010,07,14,14,14,21.80
2010,07,14,14,15,21.70
2010,07,14,14,16,21.60
2010,07,14,14,17,21.60
2010,07,14,14,18,21.70
2010,07,14,14,19,21.80
2010,07,14,14,20,21.80
2010,07,14,14,21,21.80
2010,07,14,14,22,21.80
2010,07,14,14,23,21.80
2010,07,14,14,24,21.80
2010,07,14,14,25,21.80
2010,07,14,14,26,21.70
2010,07,14,14,27,21.70
2010,07,14,14,28,21.70
2010,07,14,14,29,21.80
2010,07,14,14,30,21.80
2010,07,14,14,31,21.60
2010,07,14,14,32,21.60
2010,07,14,14,33,21.50
2010,07,14,14,34,21.40
2010,07,14,14,35,21.40
2010,07,14,14,36,21.50
2010,07,14,14,37,21.60
2010,07,14,14,38,21.70
2010,07,14,14,39,21.70
2010,07,14,14,40,21.70
2010,07,14,14,41,21.60
2010,07,14,14,42,21.60
2010,07,14,14,43,21.70
2010,07,14,14,44,21.70
2010,07,14,14,45,21.70
2010,07,14,14,46,21.70
2010,07,14,14,47,21.70
2010,07,14,14,48,21.80
2010,07,14,14,49,21.80
2010,07,14,14,50,21.90
2010,07,14,14,51,21.90
2010,07,14,14,52,21.80
2010,07,14,14,53,21.80
2010,07,14,14,54,21.80
2010,07,14,14,55,21.90
2010,07,14,14,56,21.90
2010,07,14,14,57,21.80
2010,07,14,14,58,21.80
2010,07,14,14,59,21.90
2010,07,14,15,00,21.90
2010,07,14,15,01,22.00
2010,07,14,15,02,22.10
2010,07,14,15,03,22.20
2010,07,14,15,04,22.20
2010,07,14,15,05,22.10
2010,07,14,15,06,22.20
2010,07,14,15,07,22.30
2010,07,14,15,08,22.40
2010,07,14,15,09,22.40
2010,07,14,15,10,22.30
2010,07,14,15,11,22.30
2010,07,14,15,12,22.30
2010,07,14,15,13,22.40
2010,07,14,15,14,22.60
2010,07,14,15,15,22.60
2010,07,14,15,16,22.70
2010,07,14,15,17,22.60
2010,07,14,15,18,22.60
2010,07,14,15,19,22.60
2010,07,14,15,20,22.60
2010,07,14,15,21,22.60
2010,07,14,15,22,22.60
2010,07,14,15,23,22.50
2010,07,14,15,24,22.40
2010,07,14,15,25,22.40
2010,07,14,15,26,22.40
2010,07,14,15,27,22.50
2010,07,14,15,28,22.60
2010,07,14,15,29,22.70
2010,07,14,15,30,22.80
2010,07,14,15,31,22.70
2010,07,14,15,32,22.70
2010,07,14,15,33,22.60
2010,07,14,15,34,22.60
2010,07,14,15,35,22.70
2010,07,14,15,36,22.70
2010,07,14,15,37,22.80
2010,07,14,15,38,22.80
2010,07,14,15,39,22.90
2010,07,14,15,40,23.00
2010,07,14,15,41,23.10
2010,07,14,15,42,23.20
2010,07,14,15,43,23.20
2010,07,14,15,44,23.30
2010,07,14,15,45,23.30
2010,07,14,15,46,23.30
2010,07,14,15,47,23.10
2010,07,14,15,48,23.10
2010,07,14,15,49,23.10
2010,07,14,15,50,23.10
2010,07,14,15,51,23.20
2010,07,14,15,52,23.20
2010,07,14,15,53,23.20
2010,07,14,15,54,23.20
2010,07,14,15,55,23.20
2010,07,14,15,56,23.10
2010,07,14,15,57,23.10
2010,07,14,15,58,23.10
2010,07,14,15,59,23.10
2010,07,14,16,00,23.00
2010,07,14,16,01,22.90
2010,07,14,16,02,22.90
2010,07,14,16,03,22.90
2010,07,14,16,04,22.90
2010,07,14,16,05,22.90
2010,07,14,16,06,22.90
2010,07,14,16,07,23.00
2010,07,14,16,08,23.00
2010,07,14,16,09,23.00
2010,07,14,16,10,23.00
2010,07,14,16,11,22.90
2010,07,14,16,12,22.90
2010,07,14,16,13,22.80
2010,07,14,16,14,22.80
2010,07,14,16,15,22.80
2010,07,14,16,16,22.90
2010,07,14,16,17,22.90
2010,07,14,16,18,23.00
2010,07,14,16,19,23.00
2010,07,14,16,20,23.00
2010,07,14,16,21,22.90
2010,07,14,16,22,22.80
2010,07,14,16,23,22.80
2010,07,14,16,24,22.70
2010,07,14,16,25,22.70
2010,07,14,16,26,22.70
2010,07,14,16,27,22.70
2010,07,14,16,28,22.60
2010,07,14,16,29,22.60
2010,07,14,16,30,22.60
2010,07,14,16,31,22.70
2010,07,14,16,32,22.70
2010,07,14,16,33,22.70
2010,07,14,16,34,22.70
2010,07,14,16,35,22.70
2010,07,14,16,36,22.70
2010,07,14,16,37,22.80
2010,07,14,16,38,22.80
2010,07,14,16,39,22.80
2010,07,14,16,40,22.80
2010,07,14,16,41,22.80
2010,07,14,16,42,22.80
2010,07,14,16,43,22.70
2010,07,14,16,44,22.60
2010,07,14,16,45,22.60
2010,07,14,16,46,22.70
2010,07,14,16,47,22.80
2010,07,14,16,48,22.80
2010,07,14,16,49,22.80
2010,07,14,16,50,22.80
2010,07,14,16,51,22.80
2010,07,14,16,52,22.80
2010,07,14,16,53,22.80
2010,07,14,16,54,22.70
2010,07,14,16,55,22.70
2010,07,14,16,56,22.70
2010,07,14,16,57,22.60
2010,07,14,16,58,22.60
2010,07,14,16,59,22.50
2010,07,14,17,00,22.40
2010,07,14,17,01,22.40
2010,07,14,17,02,22.40
2010,07,14,17,03,22.40
2010,07,14,17,04,22.40
2010,07,14,17,05,22.50
2010,07,14,17,06,22.50
2010,07,14,17,07,22.50
2010,07,14,17,08,22.50
2010,07,14,17,09,22.50
2010,07,14,17,10,22.60
2010,07,14,17,11,22.70
2010,07,14,17,12,22.70
2010,07,14,17,13,22.60
2010,07,14,17,14,22.60
2010,07,14,17,15,22.50
2010,07,14,17,16,22.40
2010,07,14,17,17,22.40
2010,07,14,17,18,22.40
2010,07,14,17,19,22.50
2010,07,14,17,20,22.50
2010,07,14,17,21,22.60
2010,07,14,17,22,22.60
2010,07,14,17,23,22.60
2010,07,14,17,24,22.50
2010,07,14,17,25,22.50
2010,07,14,17,26,22.40